Montgomery, AL

12:30 PM CST on January 24, 2017 (GMT -0600)
Montgomery Regional

Weather History for KMGM - February, 2013

Change the Weather History Date:

Sunday, February 3, 2013

  Actual Average Record
Temperature  
Mean Temperature 50 °F 48 °F  
Max Temperature 65 °F 59 °F 82 °F (1957)
Min Temperature 34 °F 37 °F 10 °F (1951)
Degree Days  
Heating Degree Days 15 17  
Month to date heating degree days 56 51  
Since 1 July heating degree days 1145 1513  
Moisture  
Dew Point 34 °F    
Average Humidity 64    
Maximum Humidity 100    
Minimum Humidity 27    
Precipitation  
Precipitation 0.00 in 0.19 in 2.16 in (1988)
Month to date precipitation 0.03 0.58  
Year to date precipitation 3.44 5.23  
Snow  
Snow 0.00 in 0.00 in - ()
Month to date snowfall 0.0 0.0  
Since 1 July snowfall 0.0 0.1  
Snow Depth 0.00 in    
Sea Level Pressure  
Sea Level Pressure 30.17 in    
Wind  
Wind Speed 8 mph (West)    
Max Wind Speed 22 mph    
Max Gust Speed 31 mph    
Visibility 8 miles    
Events      
T = Trace of Precipitation, MM = Missing Value Source: NWS Daily Summary

Daily Weather History Graph

Daily Weather History Graph

Search for Another Location

Airport or City:

Trip Planner

Search our weather history database for the weather conditions in past years. The results will help you decide how hot, cold, wet, or windy it might be!

Date:

Astronomy

Feb. 03, 2013 Rise Set
Actual Time 6:38 AM CST 5:21 PM CST
Civil Twilight 6:12 AM CST 5:46 PM CST
Nautical Twilight 5:43 AM CST 6:16 PM CST
Astronomical Twilight 5:14 AM CST 6:44 PM CST
Moon 12:04 AM CST (2/3) 11:00 AM CST (2/3)
Length of Visible Light 11h 34m
Length of Day
10h 43m
Waning Gibbous, 48% of the Moon is Illuminated
Feb 3
Waning Gibbous
Feb 10
New
Feb 17
First Quarter
Feb 25
Full
Mar 4
Last Quarter

Hourly Weather History & Observations

Time (CST) Temp. Windchill Dew Point Humidity Pressure Visibility Wind Dir Wind Speed Gust Speed Precip Events Conditions
12:53 AM 46.9 °F - 39.9 °F 77% 30.22 in 10.0 mi NW 8.1 mph - N/A   Mostly Cloudy
1:53 AM 43.0 °F 40.3 °F 37.9 °F 82% 30.22 in 10.0 mi WSW 4.6 mph - N/A   Clear
2:53 AM 42.1 °F 39.2 °F 37.9 °F 85% 30.21 in 10.0 mi West 4.6 mph - N/A   Clear
3:53 AM 39.0 °F 35.7 °F 36.0 °F 89% 30.19 in 10.0 mi West 4.6 mph - N/A   Clear
4:53 AM 37.0 °F - 34.0 °F 89% 30.19 in 7.0 mi Calm Calm - N/A   Clear
5:53 AM 36.0 °F 32.1 °F 34.0 °F 93% 30.21 in 9.0 mi SW 4.6 mph - N/A   Clear
6:46 AM 35.6 °F 31.7 °F 33.8 °F 93% 30.21 in 2.0 mi SW 4.6 mph - N/A   Clear
6:53 AM 34.0 °F 31.0 °F 33.1 °F 96% 30.22 in 2.0 mi SSW 3.5 mph - N/A   Clear
7:24 AM 37.4 °F 33.8 °F 35.6 °F 93% 30.22 in 1.0 mi SW 4.6 mph - N/A   Partly Cloudy
7:53 AM 41.0 °F 37.1 °F 39.0 °F 93% 30.22 in 1.0 mi WSW 5.8 mph - N/A   Partly Cloudy
7:55 AM 42.8 °F 39.3 °F 39.2 °F 87% 30.22 in 1.0 mi WSW 5.8 mph - N/A   Mist
7:57 AM 42.8 °F 39.3 °F 39.2 °F 87% 30.22 in 1.0 mi WSW 5.8 mph - N/A   Partly Cloudy
8:11 AM 42.8 °F 37.5 °F 39.2 °F 87% 30.22 in 7.0 mi WSW 9.2 mph - N/A   Clear
8:53 AM 46.9 °F - 42.1 °F 83% 30.23 in 10.0 mi SW 5.8 mph - N/A   Partly Cloudy
9:53 AM 53.1 °F - 41.0 °F 64% 30.22 in 10.0 mi SW 8.1 mph - N/A   Clear
10:53 AM 59.0 °F - 39.0 °F 48% 30.20 in 10.0 mi West 12.7 mph - N/A   Clear
11:53 AM 61.0 °F - 36.0 °F 39% 30.16 in 10.0 mi WNW 18.4 mph 23.0 mph N/A   Clear
12:53 PM 64.0 °F - 34.0 °F 33% 30.12 in 10.0 mi West 15.0 mph - N/A   Clear
1:53 PM 64.0 °F - 30.9 °F 29% 30.10 in 10.0 mi West 17.3 mph 24.2 mph N/A   Clear
2:53 PM 64.9 °F - 30.9 °F 28% 30.09 in 10.0 mi West 18.4 mph 24.2 mph N/A   Clear
3:53 PM 63.0 °F - 28.0 °F 27% 30.10 in 10.0 mi West 18.4 mph 26.5 mph N/A   Clear
4:53 PM 60.1 °F - 30.0 °F 32% 30.09 in 10.0 mi WNW 11.5 mph - N/A   Clear
5:53 PM 53.1 °F - 32.0 °F 45% 30.10 in 10.0 mi NW 5.8 mph - N/A   Clear
6:53 PM 52.0 °F - 30.0 °F 43% 30.12 in 10.0 mi NW 3.5 mph - N/A   Clear
7:53 PM 51.1 °F - 30.0 °F 44% 30.13 in 10.0 mi NW 3.5 mph - N/A   Clear
8:53 PM 48.9 °F - 30.9 °F 50% 30.14 in 10.0 mi WNW 4.6 mph - N/A   Clear
9:53 PM 48.9 °F - 30.9 °F 50% 30.14 in 10.0 mi NW 3.5 mph - N/A   Clear
10:53 PM 46.0 °F 43.9 °F 28.9 °F 51% 30.14 in 10.0 mi WNW 4.6 mph - N/A   Clear
11:53 PM 42.1 °F 39.2 °F 30.0 °F 62% 30.13 in 10.0 mi WNW 4.6 mph - N/A   Clear